TIME,DELAY(SENSOR),PRES,OXYGEN,RAWTEMP,T(OPTODE),TCPHASE,FLUOR,BETA(BETA700),BETA(BETA412),BETA(BETA440),CDOM,C(CSC),ED(ED412.20),ED(ED444.00),ED(ED489.60),ED(ED554.30),LU(LU412.10),LU(LU443.90),LU(LU489.70),LU(LU554.70),COMP,TILTX,TILTY,CHECK
1357700243,5809,888.2000122070312000,36.5944213867187500,560.7844848632812000,4.4615778923034670,56.0428009033203100,55,103,99,78,82,15546,0,0,0,0,2147124187,2147779117,2147571958,2147572187,2645,2,13,22805
1357703839,5809,960.2000122070312000,41.8073806762695300,568.0515747070312000,4.2360920906066895,55.3245315551757800,55,100,99,78,82,15548,0,0,0,0,2147123136,2147770294,2147574290,2147570998,3279,2,13,10340
1357707439,5810,976.0499877929688000,43.1034393310546900,568.6309204101562000,4.2181000709533690,55.1459503173828100,55,100,100,79,81,15512,0,0,0,0,2147122953,2147772489,2147576118,2147569298,65,3,13,7441
1357711039,5809,983.6400146484375000,42.6405296325683600,568.6248168945312000,4.2182869911193850,55.2109909057617200,55,98,101,78,82,15511,0,0,0,0,2147122176,2147770953,2147572242,2147568685,281,3,13,29017
1357714639,5807,985.9099731445312000,42.4738197326660160,568.8063964843750000,4.2126460075378420,55.2362785339355500,54,100,100,78,81,15507,0,0,0,0,2147119497,2147773366,2147575113,2147572187,577,2,13,62842
1357718239,5810,984.6300048828125000,42.6548385620117200,569.2581176757812000,4.1986141204833980,55.2172889709472660,55,103,100,78,82,15506,0,0,0,0,2147125449,2147770468,2147573577,2147568996,37,3,13,44890
1357721839,5809,986.6500244140625000,42.9238815307617200,570.2150268554688000,4.1688790321350100,55.1888313293457000,55,103,102,79,81,15507,0,0,0,0,2147124059,2147773878,2147575314,2147571401,3483,2,13,32453
1357725439,5808,991.6799926757812000,42.9109115600585940,570.3187255859375000,4.1656570434570310,55.1864089965820300,55,99,100,77,82,15500,0,0,0,0,2147122139,2147771520,2147575085,2147567780,411,3,13,21182
1357729039,5807,993.7000122070312000,42.8771591186523440,570.2772216796875000,4.1669478416442870,55.1941795349121100,54,98,100,78,81,15509,0,0,0,0,2147123456,2147768557,2147576905,2147569206,193,3,13,18362
1357732639,5809,996.7899780273438000,42.8354110717773440,569.9990234375000000,4.1755938529968260,55.1965484619140600,55,100,101,79,82,15507,0,0,0,0,2147120987,2147767222,2147576996,2147569737,52,3,13,48295
1357736239,5810,994.6400146484375000,42.7539787292480500,570.0003051757812000,4.1755499839782715,55.2095489501953100,55,99,101,77,82,15524,0,0,0,0,2147121206,2147776704,2147574738,2147569344,51,2,13,32190
1357739839,5811,987.4400024414062000,42.4086799621582000,570.3942871093750000,4.1633071899414060,55.2659187316894500,55,98,99,78,82,15522,0,0,0,0,2147122505,2147773531,2147574016,2147569700,38,2,13,13331
1357743439,5811,991.1400146484375000,42.9059104919433600,570.6046752929688000,4.1567687988281250,55.1913299560546900,55,98,100,78,82,15525,0,0,0,0,2147124571,2147771638,2147575396,2147567689,423,3,13,61715
1357747039,5810,992.6799926757812000,43.0056991577148440,570.9960937500000000,4.1446018218994140,55.1805686950683600,55,99,101,77,81,15523,0,0,0,0,2147122541,2147770057,2147578898,2147570212,111,2,13,36132
1357750639,5809,995.2399902343750000,42.8646507263183600,570.7387695312500000,4.1525988578796390,55.1999282836914060,55,99,101,78,81,15519,0,0,0,0,2147121472,2147772699,2147571163,2147570377,204,3,13,23166
1357754239,5812,992.5499877929688000,42.4912109375000000,570.4799804687500000,4.1606431007385250,55.2513084411621100,55,102,101,78,82,15522,0,0,0,0,2147127369,2147777225,2147571648,2147566738,252,3,13,50553
1357757839,5811,995.4699707031250000,42.4837188720703100,570.6646728515625000,4.1549048423767090,55.2575111389160160,55,98,100,77,81,15520,0,0,0,0,2147124169,2147773787,2147574912,2147567872,3451,2,13,25749
1357761439,5807,986.8200073242188000,42.4977302551269500,571.2376098632812000,4.1370940208435060,55.2633514404296900,55,99,100,79,82,15517,0,0,0,0,2147122166,2147772955,2147572882,2147570998,226,2,13,48032
1357765039,5809,993.7199707031250000,43.0137786865234400,571.3552246093750000,4.1334400177001950,55.1846084594726560,54,100,99,79,82,15521,0,0,0,0,2147124818,2147775954,2147576283,2147568630,212,2,13,65465
1357768639,5812,988.5599975585938000,42.4461402893066400,570.8563842773438000,4.1489429473876950,55.2601089477539060,55,97,100,79,82,15520,0,0,0,0,2147123437,2147773933,2147577673,2147568173,302,2,13,39946
1357772239,5812,987.4299926757812000,42.8607788085937500,571.7460937500000000,4.1212859153747560,55.2151298522949200,55,97,99,77,82,15520,0,0,0,0,2147121462,2147768704,2147577846,2147570898,3141,2,13,28598
1357775839,5808,989.5599975585938000,43.1968688964843750,572.1732788085938000,4.1080040931701660,55.1728897094726560,56,127,100,78,82,15520,0,0,0,0,2147123337,2147770048,2147571666,2147573046,3501,2,13,29270
1357779439,5810,985.4899902343750000,43.3762092590332000,572.5545043945312000,4.0961508750915530,55.1510581970214840,55,100,100,77,82,15518,0,0,0,0,2147124379,2147773266,2147569517,2147570084,180,2,13,37377
1357783039,5809,993.4600219726562000,43.3265304565429700,571.9802856445312000,4.1140060424804690,55.1459312438964840,55,98,100,77,82,15518,0,0,0,0,2147122706,2147770011,2147571913,2147567963,3333,2,13,12780
1357786639,5809,986.9600219726562000,43.3010482788085940,572.5994262695312000,4.0947551727294920,55.1577606201171900,54,97,100,77,82,15520,0,0,0,0,2147124690,2147768950,2147577362,2147569508,138,2,13,50119
1357790239,5808,991.2299804687500000,43.3537292480468750,572.0886230468750000,4.1106400489807130,55.1475906372070300,55,99,100,79,83,15516,0,0,0,0,2147125229,2147772452,2147575168,2147569380,138,2,13,55192
1357793839,5810,996.5800170898438000,42.9587211608886700,571.0787963867188000,4.1420331001281740,55.1920814514160160,55,98,100,91,82,15508,0,0,0,0,2147125037,2147767478,2147578294,2147569152,3115,2,13,13827
1357797439,5811,1000.0499877929688000,42.7674102783203100,570.7753906250000000,4.1514630317687990,55.2139282226562500,55,98,100,78,82,15510,0,0,0,0,2147124370,2147769115,2147577590,2147570642,3496,2,13,16610
1357801039,5813,1002.5300292968750000,42.6903991699218750,570.1043701171875000,4.1723179817199710,55.2221488952636700,55,99,101,78,82,15506,0,0,0,0,2147123849,2147773147,2147573184,2147569298,56,3,13,27468
1357804639,5808,1003.2899780273438000,42.5009307861328100,570.2476196289062000,4.1678681373596190,55.2452812194824200,55,99,100,78,82,15502,0,0,0,0,2147126564,2147771245,2147572470,2147566710,3585,2,13,43196
1357808239,5808,1000.7299804687500000,42.6872787475585940,570.1824951171875000,4.1698889732360840,55.2247695922851560,54,99,101,78,83,15501,0,0,0,0,2147121307,2147775908,2147576274,2147573540,257,3,13,35353
1357811839,5812,998.5300292968750000,42.6068000793457000,570.7659301757812000,4.1517581939697270,55.2415084838867200,56,99,101,77,82,15500,0,0,0,0,2147120969,2147771931,2147574774,2147571053,3436,2,13,46687
1357815439,5810,1001.3800048828125000,42.7819099426269500,570.8270263671875000,4.1498579978942870,55.2134208679199200,55,98,102,78,83,15494,0,0,0,0,2147122587,2147768713,2147572470,2147570386,3501,2,13,428
1357819039,5810,996.8300170898438000,42.6140403747558600,570.8005981445312000,4.1506810188293460,55.2352218627929700,55,98,99,78,82,15500,0,0,0,0,2147123693,2147773897,2147574125,2147570185,181,3,13,25683
1357822639,5810,998.5100097656250000,42.6449203491210940,570.7813720703125000,4.1512761116027830,55.2310104370117200,56,98,101,78,81,15498,0,0,0,0,2147124918,2147771273,2147572470,2147566528,211,2,13,64045
1357826239,5809,1006.5300292968750000,42.7255897521972660,570.5584716796875000,4.1582050323486330,55.2222518920898440,55,99,100,78,82,15498,0,0,0,0,2147126966,2147773147,2147574016,2147570468,544,2,13,62001
1357829839,5810,1002.1300048828125000,42.4646186828613300,570.8771972656250000,4.1482977867126465,55.2631492614746100,56,98,100,78,81,15495,0,0,0,0,2147123309,2147765147,2147572690,2147567533,3517,2,13,43778
1357833439,5809,997.4199829101562000,42.4907112121582000,570.8937988281250000,4.1477808952331540,55.2594718933105500,55,99,100,77,81,15497,0,0,0,0,2147122816,2147774043,2147572717,2147569078,193,2,13,43439
1357837039,5809,993.8099975585938000,42.2482490539550800,571.0889282226562000,4.1417179107666020,55.2932205200195300,55,99,100,78,82,15497,0,0,0,0,2147122459,2147772946,2147573961,2147569042,159,2,13,63562
1357840639,5808,994.6500244140625000,42.7083702087402340,571.4152221679688000,4.1315751075744630,55.2302398681640600,55,99,100,77,83,15496,0,0,0,0,2147123300,2147774345,2147573833,2147569179,3590,2,13,15932
1357844239,5811,996.1599731445312000,42.6877784729003900,572.2155761718750000,4.1066880226135250,55.2443809509277340,55,98,101,77,83,15496,0,0,0,0,2147122989,2147771876,2147570514,2147566902,3528,2,13,24719
1357845355,5808,996.6199951171875000,43.2999687194824200,571.9661254882812000,4.1144471168518070,55.1518096923828100,55,97,101,78,82,15495,0,0,0,0,2147125622,2147773412,2147572032,2147568685,2874,3,13,48655
